[Iaude] MPEC E108: 2024 EJ2 [a=1.77,e=0.55,i=8.0,H=26.2]

mpec at cfa.harvard.edu mpec at cfa.harvard.edu
Thu Mar 7 06:49:58 EST 2024


M.P.E.C. 2024-E108                                Issued 2024 March 7, 11:48 UT

     The Minor Planet Electronic Circulars contain information on unusual
         minor planets, routine data on comets and natural satellites,
         and occasional editorial announcements.  They are published
    on behalf of Division F of the International Astronomical Union by the
          Minor Planet Center, Smithsonian Astrophysical Observatory,
                          Cambridge, MA 02138, U.S.A.
			  
             Prepared using the Tamkin Foundation Computer Network

                              MPC at CFA.HARVARD.EDU
            URL https://www.minorplanetcenter.net/    ISSN 1523-6714

                                    2024 EJ2                                    


Observations:
     K24E02J* C2024 03 06.41726810 35 53.561+40 27 19.80         18.34oVEE108T05
     K24E02J  C2024 03 06.42096810 35 49.020+40 29 07.19         18.20oVEE108T05
     K24E02J  C2024 03 06.45633110 35 04.428+40 46 30.90         19.00oVEE108T05
     K24E02J  C2024 03 06.46382310 34 54.722+40 50 16.26         18.35oVEE108T05
     K24E02J KB2024 03 06.89885 10 25 19.53 +45 39 32.2          17.2 GXEE108K19
     K24E02J KB2024 03 06.90020 10 25 16.35 +45 40 46.4          17.6 GXEE108K19
     K24E02J KB2024 03 06.90154 10 25 13.25 +45 41 59.5          18.3 GXEE108K19
     K24E02J KC2024 03 06.92025 10 24 05.594+45 56 39.70         17.9 GVEE108B42
     K24E02J KC2024 03 06.92079 10 24 04.332+45 57 08.32         17.7 GVEE108B42
     K24E02J KC2024 03 06.92132 10 24 03.041+45 57 36.86         17.7 GVEE108B42
     K24E02J KC2024 03 06.92681710 24 16.301+46 03 20.95         17.7 GVEE108J95
     K24E02J KC2024 03 06.92767910 24 14.220+46 04 09.66         17.9 GVEE108J95
     K24E02J KC2024 03 06.92855810 24 12.055+46 04 59.27         17.8 GVEE108J95
     K24E02J KC2024 03 06.92941810 24 09.962+46 05 47.87         17.8 GVEE108J95
     K24E02J KC2024 03 06.93336810 24 02.10 +46 11 25.1          17.9 GXEE108958
     K24E02J KC2024 03 06.93591610 23 55.67 +46 13 51.1          17.9 GXEE108958
     K24E02J KC2024 03 06.93847510 23 49.18 +46 16 17.6          17.7 GXEE108958
     K24E02J KB2024 03 06.93998710 23 44.31 +46 17 33.5          17.9 GXEE108I93
     K24E02J KC2024 03 06.94104410 23 42.61 +46 18 45.5          17.7 GXEE108958
     K24E02J KC2024 03 06.94174010 23 38.354+46 17 30.84         17.8 GVEE108Z80
     K24E02J KB2024 03 06.94176410 23 39.76 +46 19 15.7          17.5 GXEE108I93
     K24E02J KB2024 03 06.94348010 23 35.33 +46 20 54.5          17.3 GXEE108I93
     K24E02J KC2024 03 06.94361310 23 36.01 +46 21 13.5          17.8 GXEE108958
     K24E02J KC2024 03 06.95014410 23 16.963+46 25 36.55         17.8 GVEE108Z80
     K24E02J KB2024 03 06.95593510 22 54.697+46 31 29.82         17.3 GXEE108B72
     K24E02J KB2024 03 06.95810010 22 48.998+46 33 35.68         17.9 GXEE108B72
     K24E02J KB2024 03 06.96026410 22 43.283+46 35 41.91         17.8 GXEE108B72
     K24E02J KB2024 03 06.96229710 22 37.889+46 37 40.89         17.6 GXEE108B72
     K24E02J KB2024 03 06.96420310 22 32.813+46 39 32.93         17.8 GXEE108B72
     K24E02J KB2024 03 06.96610510 22 27.730+46 41 24.33         18.3 GXEE108B72
     K24E02J KB2024 03 07.16786 10 11 15.48 +50 29 39.7          17.2 GXEE108K19
     K24E02J KB2024 03 07.16884 10 11 11.53 +50 30 55.5          17.4 GXEE108K19
     K24E02J KB2024 03 07.16982 10 11 07.65 +50 32 10.9          17.0 GXEE108K19
     K24E02J mC2024 03 07.28801410 03 10.156+53 42 54.54         17.52GVEE108I52
     K24E02J mC2024 03 07.28810310 03 09.594+53 43 03.54         17.43GVEE108I52
     K24E02J mC2024 03 07.28819210 03 09.014+53 43 12.40         17.51GVEE108I52
     K24E02J mC2024 03 07.28828110 03 08.500+53 43 21.18         16.81GVEE108I52

Observer details:
958 Observatoire de Dax.  Observers P. Dupouy, J. B. de Vanssay.  Measurer P.
    Dupouy.  0.43-m f/2.7 Reflector + CCD.
B42 Vitebsk.  Observer V. Nevski.  0.3-m f/5.0 0.3-m f/5.0 reflector + CCD.
B72 Soerth Observatory.  Observer B. Koch.  0.36-m f/7.6 reflector + CMO.
I52 Steward Observatory, Mt. Lemmon Station.  Observers V. F. Carvajal, G. J.
    Leonard.  Measurers T. Beuden, V. F. Carvajal, D. Fay, J. B. Fazekas, D.
    C. Fuls, A. R. Gibbs, A. D. Grauer, H. Groeller, J. K. Hogan, R. A.
    Kowalski, S. M. Larson, G. J. Leonard, D. Rankin, R. L. Seaman, F. C.
    Shelly, K. W. Wierzchos.  1.0-m prime focus + CCD.
I93 St Pardon de Conques.  Observer F. Losse.  0.40-m f/3.7 reflector + CCD.
J95 Great Shefford.  Observer P. Birtwhistle.  0.41-m f/6.3 Schmidt-Cassegrain
    + CCD.
K19 PASTIS Observatory, Banon.  Observer C. Demeautis.  0.28-m f/2.2 reflector
    + CMO.
T05 ATLAS-HKO, Haleakala.  Observers L. Denneau, R. Siverd, J. Tonry, H.
    Weiland.  Measurers L. Denneau, N. Erasmus, A. Fitzsimmons, J. Robinson,
    R. Siverd, J. Tonry, H. Weiland.  0.5-m Reflector + CCD.
Z80 Northolt Branch Observatory.  Observer G. Wells.  0.25-m f/8.0 Ritchey-
    Chretien + CCD.

Orbital elements:
2024 EJ2                                                 Earth MOID = 0.0029 AU
Epoch 2024 Mar. 31.0 TT = JDT 2460400.5                 Veres                   
M 351.55079              (2000.0)            P               Q                  
n   0.41899285     Peri.  242.81800     -0.62158620     +0.78286507             
a   1.7687440      Node   348.62505     -0.66045264     -0.54258396             
e   0.5512164      Incl.    7.99696     -0.42122785     -0.30450768             
P   2.35           H   26.29          G   0.15           U   8                  
Residuals in seconds of arc
240306 T05  0.1-  0.4+    240306 J95  0.0   0.0     240306 B72  0.1-  0.4+
240306 T05  0.1+  0.2-    240306 958  0.5-  0.0     240306 B72  0.1-  0.5+
240306 T05  0.2+  0.9-    240306 958  0.4-  0.4+    240306 B72  0.2-  0.8+
240306 T05  0.1-  0.3+    240306 958  0.2-  0.2+    240306 B72  0.1-  0.4+
240306 K19  0.1-  0.1+    240306 I93  0.0   0.4+    240307 K19  0.2-  0.7+
240306 K19  0.3-  0.7+    240306 958  0.2-  0.4+    240307 K19  0.3-  0.5+
240306 K19  0.3+  0.6+    240306 Z80  0.4-  0.4-    240307 K19  0.3+  0.3-
240306 B42  0.3+  0.4-    240306 I93  0.1+  0.4+    240307 I52  0.1+  0.0
240306 B42  0.6+  0.9-    240306 I93  0.1-  0.2+    240307 I52  0.0   0.0
240306 B42  0.5+  1.5-    240306 958  0.0   0.2+    240307 I52  0.3-  0.0
240306 J95  0.1-  0.1+    240306 Z80  0.3-  0.2+    240307 I52  0.0   0.1-
240306 J95  0.1+  0.1+    240306 B72  0.0   0.5+
240306 J95  0.1-  0.0     240306 B72  0.1-  0.4+

Ephemeris:
2024 EJ2                 a,e,i = 1.77, 0.55, 8                   q = 0.7938
Date    TT    R. A. (2000) Decl.     Delta      r    Elong.  Phase     V
2024 02 06    10 52 36.5 +25 26 07   0.2836  1.2494   155.4    19.2    25.0
...
2024 02 21    10 55 29.3 +27 13 11   0.1398  1.1218   161.0    16.6    23.2
...
2024 02 29    10 53 55.8 +29 07 38   0.06930 1.0555   158.7    19.9    21.6
...
2024 03 06    10 40 49.9 +37 40 26   0.01811 1.0074   147.5    32.0    19.0
2024 03 07    10 21 12.1 +47 15 42   0.0099130.9996   136.7    42.9    17.9
2024 03 08    02 05 29.6 +67 02 45   0.0037850.9919    78.1   101.7    17.9
...
2024 03 14    23 03 05.6 -22 33 58   0.05077 0.9472    21.6   157.3    29.8
...
2024 03 22    23 01 06.3 -24 23 18   0.1205  0.8934    29.5   146.7    29.3
...
2024 04 06    23 07 49.7 -22 52 17   0.2605  0.8191    40.2   128.0    28.5

M. P. C. Staff               (C) Copyright 2024 MPC           M.P.E.C. 2024-E108





More information about the Iaude mailing list